"Plot Title: CTA Jon Davies"
"#","Date Time, GMT-08:00","Temp, �C","Coupler Detached","Coupler Attached","Host Connected","Stopped","End Of File"
1,12/23/12 08:00:00 AM,15.199,Logged,,,,
2,12/23/12 08:30:00 AM,15.175,,,,,
3,12/23/12 09:00:00 AM,15.127,,,,,
4,12/23/12 09:30:00 AM,15.103,,,,,
5,12/23/12 10:00:00 AM,15.079,,,,,
6,12/23/12 10:30:00 AM,15.103,,,,,
7,12/23/12 11:00:00 AM,15.127,,,,,
8,12/23/12 11:30:00 AM,15.151,,,,,
9,12/23/12 12:00:00 PM,15.199,,,,,
10,12/23/12 12:30:00 PM,15.247,,,,,
11,12/23/12 01:00:00 PM,15.438,,,,,
12,12/23/12 01:30:00 PM,15.676,,,,,
13,12/23/12 02:00:00 PM,15.915,,,,,
14,12/23/12 02:30:00 PM,16.058,,,,,
15,12/23/12 03:00:00 PM,16.201,,,,,
16,12/23/12 03:30:00 PM,16.272,,,,,
17,12/23/12 04:00:00 PM,16.296,,,,,
18,12/23/12 04:30:00 PM,16.320,,,,,
19,12/23/12 05:00:00 PM,16.296,,,,,
20,12/23/12 05:30:00 PM,16.272,,,,,
21,12/23/12 06:00:00 PM,16.392,,,,,
22,12/23/12 06:30:00 PM,16.558,,,,,
23,12/23/12 07:00:00 PM,16.677,,,,,
24,12/23/12 07:30:00 PM,16.749,,,,,
25,12/23/12 08:00:00 PM,16.796,,,,,
26,12/23/12 08:30:00 PM,16.796,,,,,
27,12/23/12 09:00:00 PM,16.773,,,,,
28,12/23/12 09:30:00 PM,16.725,,,,,
29,12/23/12 10:00:00 PM,16.654,,,,,
30,12/23/12 10:30:00 PM,16.630,,,,,
31,12/23/12 11:00:00 PM,16.582,,,,,
32,12/23/12 11:30:00 PM,16.511,,,,,
33,12/24/12 12:00:00 AM,16.439,,,,,
34,12/24/12 12:30:00 AM,16.392,,,,,
35,12/24/12 01:00:00 AM,16.296,,,,,
36,12/24/12 01:30:00 AM,16.225,,,,,
37,12/24/12 02:00:00 AM,16.153,,,,,
38,12/24/12 02:30:00 AM,16.106,,,,,
39,12/24/12 03:00:00 AM,16.082,,,,,
40,12/24/12 03:30:00 AM,16.034,,,,,
41,12/24/12 04:00:00 AM,15.963,,,,,
42,12/24/12 04:30:00 AM,15.915,,,,,
43,12/24/12 05:00:00 AM,15.867,,,,,
44,12/24/12 05:30:00 AM,15.796,,,,,
45,12/24/12 06:00:00 AM,15.748,,,,,
46,12/24/12 06:30:00 AM,15.700,,,,,
47,12/24/12 07:00:00 AM,15.676,,,,,
48,12/24/12 07:30:00 AM,15.629,,,,,
49,12/24/12 08:00:00 AM,15.605,,,,,
50,12/24/12 08:30:00 AM,15.557,,,,,
51,12/24/12 09:00:00 AM,15.533,,,,,
52,12/24/12 09:30:00 AM,15.533,,,,,
53,12/24/12 10:00:00 AM,15.557,,,,,
54,12/24/12 10:30:00 AM,15.557,,,,,
55,12/24/12 11:00:00 AM,15.557,,,,,
56,12/24/12 11:30:00 AM,15.581,,,,,
57,12/24/12 12:00:00 PM,15.652,,,,,
58,12/24/12 12:30:00 PM,15.724,,,,,
59,12/24/12 01:00:00 PM,15.819,,,,,
60,12/24/12 01:30:00 PM,15.867,,,,,
61,12/24/12 02:00:00 PM,16.010,,,,,
62,12/24/12 02:30:00 PM,16.320,,,,,
63,12/24/12 03:00:00 PM,16.558,,,,,
64,12/24/12 03:30:00 PM,16.725,,,,,
65,12/24/12 04:00:00 PM,16.868,,,,,
66,12/24/12 04:30:00 PM,17.058,,,,,
67,12/24/12 05:00:00 PM,17.249,,,,,
68,12/24/12 05:30:00 PM,17.368,,,,,
69,12/24/12 06:00:00 PM,17.296,,,,,
70,12/24/12 06:30:00 PM,17.034,,,,,
71,12/24/12 07:00:00 PM,16.701,,,,,
72,12/24/12 07:30:00 PM,16.368,,,,,
73,12/24/12 08:00:00 PM,16.034,,,,,
74,12/24/12 08:30:00 PM,15.843,,,,,
75,12/24/12 09:00:00 PM,15.724,,,,,
76,12/24/12 09:30:00 PM,15.629,,,,,
77,12/24/12 10:00:00 PM,15.581,,,,,
78,12/24/12 10:30:00 PM,15.509,,,,,
79,12/24/12 11:00:00 PM,15.414,,,,,
80,12/24/12 11:30:00 PM,15.294,,,,,
81,12/25/12 12:00:00 AM,15.175,,,,,
82,12/25/12 12:30:00 AM,15.055,,,,,
83,12/25/12 01:00:00 AM,14.936,,,,,
84,12/25/12 01:30:00 AM,14.864,,,,,
85,12/25/12 02:00:00 AM,14.768,,,,,
86,12/25/12 02:30:00 AM,14.697,,,,,
87,12/25/12 03:00:00 AM,14.601,,,,,
88,12/25/12 03:30:00 AM,14.505,,,,,
89,12/25/12 04:00:00 AM,14.409,,,,,
90,12/25/12 04:30:00 AM,14.290,,,,,
91,12/25/12 05:00:00 AM,14.194,,,,,
92,12/25/12 05:30:00 AM,14.074,,,,,
93,12/25/12 06:00:00 AM,14.002,,,,,
94,12/25/12 06:30:00 AM,13.930,,,,,
95,12/25/12 07:00:00 AM,13.858,,,,,
96,12/25/12 07:30:00 AM,13.786,,,,,
97,12/25/12 08:00:00 AM,13.714,,,,,
98,12/25/12 08:30:00 AM,13.666,,,,,
99,12/25/12 09:00:00 AM,13.618,,,,,
100,12/25/12 09:30:00 AM,13.642,,,,,
101,12/25/12 10:00:00 AM,13.642,,,,,
102,12/25/12 10:30:00 AM,13.690,,,,,
103,12/25/12 11:00:00 AM,13.762,,,,,
104,12/25/12 11:30:00 AM,13.834,,,,,
105,12/25/12 12:00:00 PM,13.906,,,,,
106,12/25/12 12:30:00 PM,13.954,,,,,
107,12/25/12 01:00:00 PM,14.050,,,,,
108,12/25/12 01:30:00 PM,14.170,,,,,
109,12/25/12 02:00:00 PM,14.290,,,,,
110,12/25/12 02:30:00 PM,14.361,,,,,
111,12/25/12 03:00:00 PM,14.433,,,,,
112,12/25/12 03:30:00 PM,14.553,,,,,
113,12/25/12 04:00:00 PM,14.601,,,,,
114,12/25/12 04:30:00 PM,14.505,,,,,
115,12/25/12 05:00:00 PM,14.385,,,,,
116,12/25/12 05:30:00 PM,14.170,,,,,
117,12/25/12 06:00:00 PM,13.906,,,,,
118,12/25/12 06:30:00 PM,13.762,,,,,
119,12/25/12 07:00:00 PM,13.714,,,,,
120,12/25/12 07:30:00 PM,13.762,,,,,
121,12/25/12 08:00:00 PM,13.762,,,,,
122,12/25/12 08:30:00 PM,13.786,,,,,
123,12/25/12 09:00:00 PM,13.810,,,,,
124,12/25/12 09:30:00 PM,13.786,,,,,
125,12/25/12 10:00:00 PM,13.762,,,,,
126,12/25/12 10:30:00 PM,13.762,,,,,
127,12/25/12 11:00:00 PM,13.714,,,,,
128,12/25/12 11:30:00 PM,13.714,,,,,
129,12/26/12 12:00:00 AM,13.666,,,,,
130,12/26/12 12:30:00 AM,13.666,,,,,
131,12/26/12 01:00:00 AM,13.690,,,,,
132,12/26/12 01:30:00 AM,13.690,,,,,
133,12/26/12 02:00:00 AM,13.666,,,,,
134,12/26/12 02:30:00 AM,13.666,,,,,
135,12/26/12 03:00:00 AM,13.642,,,,,
136,12/26/12 03:30:00 AM,13.642,,,,,
137,12/26/12 04:00:00 AM,13.618,,,,,
138,12/26/12 04:30:00 AM,13.618,,,,,
139,12/26/12 05:00:00 AM,13.642,,,,,
140,12/26/12 05:30:00 AM,13.642,,,,,
141,12/26/12 06:00:00 AM,13.642,,,,,
142,12/26/12 06:30:00 AM,13.642,,,,,
143,12/26/12 07:00:00 AM,13.618,,,,,
144,12/26/12 07:30:00 AM,13.618,,,,,
145,12/26/12 08:00:00 AM,13.618,,,,,
146,12/26/12 08:30:00 AM,13.618,,,,,
147,12/26/12 09:00:00 AM,13.594,,,,,
148,12/26/12 09:30:00 AM,13.594,,,,,
149,12/26/12 10:00:00 AM,13.594,,,,,
150,12/26/12 10:30:00 AM,13.618,,,,,
151,12/26/12 11:00:00 AM,13.642,,,,,
152,12/26/12 11:30:00 AM,13.690,,,,,
153,12/26/12 12:00:00 PM,13.786,,,,,
154,12/26/12 12:30:00 PM,13.882,,,,,
155,12/26/12 01:00:00 PM,14.002,,,,,
156,12/26/12 01:30:00 PM,14.122,,,,,
157,12/26/12 02:00:00 PM,14.242,,,,,
158,12/26/12 02:30:00 PM,14.337,,,,,
159,12/26/12 03:00:00 PM,14.433,,,,,
160,12/26/12 03:30:00 PM,14.505,,,,,
161,12/26/12 04:00:00 PM,14.553,,,,,
162,12/26/12 04:30:00 PM,14.601,,,,,
163,12/26/12 05:00:00 PM,14.625,,,,,
164,12/26/12 05:30:00 PM,14.601,,,,,
165,12/26/12 06:00:00 PM,14.673,,,,,
166,12/26/12 06:30:00 PM,14.745,,,,,
167,12/26/12 07:00:00 PM,14.768,,,,,
168,12/26/12 07:30:00 PM,14.768,,,,,
169,12/26/12 08:00:00 PM,14.721,,,,,
170,12/26/12 08:30:00 PM,14.745,,,,,
171,12/26/12 09:00:00 PM,14.840,,,,,
172,12/26/12 09:30:00 PM,14.649,,,,,
173,12/26/12 10:00:00 PM,14.553,,,,,
174,12/26/12 10:30:00 PM,14.481,,,,,
175,12/26/12 11:00:00 PM,14.433,,,,,
176,12/26/12 11:30:00 PM,14.361,,,,,
177,12/27/12 12:00:00 AM,14.266,,,,,
178,12/27/12 12:30:00 AM,14.194,,,,,
179,12/27/12 01:00:00 AM,14.098,,,,,
180,12/27/12 01:30:00 AM,14.002,,,,,
181,12/27/12 02:00:00 AM,13.906,,,,,
182,12/27/12 02:30:00 AM,13.762,,,,,
183,12/27/12 03:00:00 AM,13.642,,,,,
184,12/27/12 03:30:00 AM,13.522,,,,,
185,12/27/12 04:00:00 AM,13.401,,,,,
186,12/27/12 04:30:00 AM,13.305,,,,,
187,12/27/12 05:00:00 AM,13.209,,,,,
188,12/27/12 05:30:00 AM,13.088,,,,,
189,12/27/12 06:00:00 AM,12.968,,,,,
190,12/27/12 06:30:00 AM,12.847,,,,,
191,12/27/12 07:00:00 AM,12.727,,,,,
192,12/27/12 07:30:00 AM,12.630,,,,,
193,12/27/12 08:00:00 AM,12.558,,,,,
194,12/27/12 08:30:00 AM,12.461,,,,,
195,12/27/12 09:00:00 AM,12.413,,,,,
196,12/27/12 09:30:00 AM,12.389,,,,,
197,12/27/12 10:00:00 AM,12.364,,,,,
198,12/27/12 10:30:00 AM,12.413,,,,,
199,12/27/12 11:00:00 AM,12.413,,,,,
200,12/27/12 11:30:00 AM,12.485,,,,,
201,12/27/12 12:00:00 PM,12.582,,,,,
202,12/27/12 12:30:00 PM,12.703,,,,,
203,12/27/12 01:00:00 PM,12.847,,,,,
204,12/27/12 01:30:00 PM,12.992,,,,,
205,12/27/12 02:00:00 PM,13.209,,,,,
206,12/27/12 02:30:00 PM,13.401,,,,,
207,12/27/12 03:00:00 PM,13.570,,,,,
208,12/27/12 03:30:00 PM,13.690,,,,,
209,12/27/12 04:00:00 PM,13.786,,,,,
210,12/27/12 04:30:00 PM,13.834,,,,,
211,12/27/12 05:00:00 PM,13.858,,,,,
212,12/27/12 05:30:00 PM,13.882,,,,,
213,12/27/12 06:00:00 PM,13.882,,,,,
214,12/27/12 06:30:00 PM,13.834,,,,,
215,12/27/12 07:00:00 PM,13.762,,,,,
216,12/27/12 07:30:00 PM,13.690,,,,,
217,12/27/12 08:00:00 PM,13.594,,,,,
218,12/27/12 08:30:00 PM,13.473,,,,,
219,12/27/12 09:00:00 PM,13.377,,,,,
220,12/27/12 09:30:00 PM,13.281,,,,,
221,12/27/12 10:00:00 PM,13.281,,,,,
222,12/27/12 10:30:00 PM,13.305,,,,,
223,12/27/12 11:00:00 PM,13.329,,,,,
224,12/27/12 11:30:00 PM,13.329,,,,,
225,12/28/12 12:00:00 AM,13.329,,,,,
226,12/28/12 12:30:00 AM,13.305,,,,,
227,12/28/12 01:00:00 AM,13.233,,,,,
228,12/28/12 01:30:00 AM,13.161,,,,,
229,12/28/12 02:00:00 AM,13.088,,,,,
230,12/28/12 02:30:00 AM,12.992,,,,,
231,12/28/12 03:00:00 AM,12.896,,,,,
232,12/28/12 03:30:00 AM,12.823,,,,,
233,12/28/12 04:00:00 AM,12.727,,,,,
234,12/28/12 04:30:00 AM,12.630,,,,,
235,12/28/12 05:00:00 AM,12.509,,,,,
236,12/28/12 05:30:00 AM,12.413,,,,,
237,12/28/12 06:00:00 AM,12.292,,,,,
238,12/28/12 06:30:00 AM,12.219,,,,,
239,12/28/12 07:00:00 AM,12.147,,,,,
240,12/28/12 07:30:00 AM,12.050,,,,,
241,12/28/12 08:00:00 AM,11.977,,,,,
242,12/28/12 08:30:00 AM,11.880,,,,,
243,12/28/12 09:00:00 AM,11.783,,,,,
244,12/28/12 09:30:00 AM,11.734,,,,,
245,12/28/12 10:00:00 AM,11.710,,,,,
246,12/28/12 10:30:00 AM,11.734,,,,,
247,12/28/12 11:00:00 AM,11.759,,,,,
248,12/28/12 11:30:00 AM,11.807,,,,,
249,12/28/12 12:00:00 PM,11.904,,,,,
250,12/28/12 12:30:00 PM,12.025,,,,,
251,12/28/12 01:00:00 PM,12.195,,,,,
252,12/28/12 01:30:00 PM,12.413,,,,,
253,12/28/12 02:00:00 PM,12.630,,,,,
254,12/28/12 02:30:00 PM,12.847,,,,,
255,12/28/12 03:00:00 PM,13.040,,,,,
256,12/28/12 03:30:00 PM,13.233,,,,,
257,12/28/12 04:00:00 PM,13.425,,,,,
258,12/28/12 04:30:00 PM,13.762,,,,,
259,12/28/12 05:00:00 PM,14.050,,,,,
260,12/28/12 05:30:00 PM,14.266,,,,,
261,12/28/12 06:00:00 PM,14.385,,,,,
262,12/28/12 06:30:00 PM,14.505,,,,,
263,12/28/12 07:00:00 PM,14.553,,,,,
264,12/28/12 07:30:00 PM,14.553,,,,,
265,12/28/12 08:00:00 PM,14.505,,,,,
266,12/28/12 08:30:00 PM,14.481,,,,,
267,12/28/12 09:00:00 PM,14.409,,,,,
268,12/28/12 09:30:00 PM,14.314,,,,,
269,12/28/12 10:00:00 PM,14.218,,,,,
270,12/28/12 10:30:00 PM,14.098,,,,,
271,12/28/12 11:00:00 PM,13.954,,,,,
272,12/28/12 11:30:00 PM,13.834,,,,,
273,12/29/12 12:00:00 AM,13.738,,,,,
274,12/29/12 12:30:00 AM,13.618,,,,,
275,12/29/12 01:00:00 AM,13.473,,,,,
276,12/29/12 01:30:00 AM,13.353,,,,,
277,12/29/12 02:00:00 AM,13.233,,,,,
278,12/29/12 02:30:00 AM,13.137,,,,,
279,12/29/12 03:00:00 AM,12.992,,,,,
280,12/29/12 03:30:00 AM,12.871,,,,,
281,12/29/12 04:00:00 AM,12.751,,,,,
282,12/29/12 04:30:00 AM,12.630,,,,,
283,12/29/12 05:00:00 AM,12.509,,,,,
284,12/29/12 05:30:00 AM,12.413,,,,,
285,12/29/12 06:00:00 AM,12.364,,,,,
286,12/29/12 06:30:00 AM,12.268,,,,,
287,12/29/12 07:00:00 AM,12.219,,,,,
288,12/29/12 07:30:00 AM,12.147,,,,,
289,12/29/12 08:00:00 AM,12.074,,,,,
290,12/29/12 08:30:00 AM,12.025,,,,,
291,12/29/12 09:00:00 AM,12.025,,,,,
292,12/29/12 09:30:00 AM,12.050,,,,,
293,12/29/12 10:00:00 AM,12.050,,,,,
294,12/29/12 10:30:00 AM,12.050,,,,,
295,12/29/12 11:00:00 AM,12.050,,,,,
296,12/29/12 11:30:00 AM,12.098,,,,,
297,12/29/12 12:00:00 PM,12.147,,,,,
298,12/29/12 12:30:00 PM,12.195,,,,,
299,12/29/12 01:00:00 PM,12.243,,,,,
300,12/29/12 01:30:00 PM,12.292,,,,,
301,12/29/12 02:00:00 PM,12.340,,,,,
302,12/29/12 02:30:00 PM,12.389,,,,,
303,12/29/12 03:00:00 PM,12.461,,,,,
304,12/29/12 03:30:00 PM,12.534,,,,,
305,12/29/12 04:00:00 PM,12.606,,,,,
306,12/29/12 04:30:00 PM,12.823,,,,,
307,12/29/12 05:00:00 PM,13.040,,,,,
308,12/29/12 05:30:00 PM,13.161,,,,,
309,12/29/12 06:00:00 PM,13.281,,,,,
310,12/29/12 06:30:00 PM,13.353,,,,,
311,12/29/12 07:00:00 PM,13.401,,,,,
312,12/29/12 07:30:00 PM,13.401,,,,,
313,12/29/12 08:00:00 PM,13.377,,,,,
314,12/29/12 08:30:00 PM,13.353,,,,,
315,12/29/12 09:00:00 PM,13.305,,,,,
316,12/29/12 09:30:00 PM,13.209,,,,,
317,12/29/12 10:00:00 PM,13.112,,,,,
318,12/29/12 10:30:00 PM,13.016,,,,,
319,12/29/12 11:00:00 PM,12.896,,,,,
320,12/29/12 11:30:00 PM,12.799,,,,,
321,12/30/12 12:00:00 AM,12.703,,,,,
322,12/30/12 12:30:00 AM,12.582,,,,,
323,12/30/12 01:00:00 AM,12.461,,,,,
324,12/30/12 01:30:00 AM,12.364,,,,,
325,12/30/12 02:00:00 AM,12.219,,,,,
326,12/30/12 02:30:00 AM,12.098,,,,,
327,12/30/12 03:00:00 AM,12.025,,,,,
328,12/30/12 03:30:00 AM,11.929,,,,,
329,12/30/12 04:00:00 AM,11.856,,,,,
330,12/30/12 04:30:00 AM,11.783,,,,,
331,12/30/12 05:00:00 AM,11.710,,,,,
332,12/30/12 05:30:00 AM,11.637,,,,,
333,12/30/12 06:00:00 AM,11.565,,,,,
334,12/30/12 06:30:00 AM,11.516,,,,,
335,12/30/12 07:00:00 AM,11.443,,,,,
336,12/30/12 07:30:00 AM,11.346,,,,,
337,12/30/12 08:00:00 AM,11.273,,,,,
338,12/30/12 08:30:00 AM,11.200,,,,,
339,12/30/12 09:00:00 AM,11.102,,,,,
340,12/30/12 09:30:00 AM,11.078,,,,,
341,12/30/12 10:00:00 AM,11.078,,,,,
342,12/30/12 10:30:00 AM,11.078,,,,,
343,12/30/12 11:00:00 AM,11.102,,,,,
344,12/30/12 11:30:00 AM,11.175,,,,,
345,12/30/12 12:00:00 PM,11.248,,,,,
346,12/30/12 12:30:00 PM,11.370,,,,,
347,12/30/12 01:00:00 PM,11.540,,,,,
348,12/30/12 01:30:00 PM,11.662,,,,,
349,12/30/12 02:00:00 PM,11.807,,,,,
350,12/30/12 02:30:00 PM,11.929,,,,,
351,12/30/12 03:00:00 PM,12.050,,,,,
352,12/30/12 03:30:00 PM,12.147,,,,,
353,12/30/12 04:00:00 PM,12.219,,,,,
354,12/30/12 04:30:00 PM,12.292,,,,,
355,12/30/12 05:00:00 PM,12.292,,,,,
356,12/30/12 05:30:00 PM,12.413,,,,,
357,12/30/12 06:00:00 PM,12.558,,,,,
358,12/30/12 06:30:00 PM,12.678,,,,,
359,12/30/12 07:00:00 PM,12.751,,,,,
360,12/30/12 07:30:00 PM,12.751,,,,,
361,12/30/12 08:00:00 PM,12.751,,,,,
362,12/30/12 08:30:00 PM,12.703,,,,,
363,12/30/12 09:00:00 PM,12.703,,,,,
364,12/30/12 09:30:00 PM,12.775,,,,,
365,12/30/12 10:00:00 PM,12.992,,,,,
366,12/30/12 10:30:00 PM,13.209,,,,,
367,12/30/12 11:00:00 PM,13.353,,,,,
368,12/30/12 11:30:00 PM,13.425,,,,,
369,12/31/12 12:00:00 AM,13.449,,,,,
370,12/31/12 12:30:00 AM,13.425,,,,,
371,12/31/12 01:00:00 AM,13.353,,,,,
372,12/31/12 01:30:00 AM,13.281,,,,,
373,12/31/12 02:00:00 AM,13.185,,,,,
374,12/31/12 02:30:00 AM,13.088,,,,,
375,12/31/12 03:00:00 AM,12.944,,,,,
376,12/31/12 03:30:00 AM,12.823,,,,,
377,12/31/12 04:00:00 AM,12.703,,,,,
378,12/31/12 04:30:00 AM,12.558,,,,,
379,12/31/12 05:00:00 AM,12.461,,,,,
380,12/31/12 05:30:00 AM,12.364,,,,,
381,12/31/12 06:00:00 AM,12.268,,,,,
382,12/31/12 06:30:00 AM,12.147,,,,,
383,12/31/12 07:00:00 AM,12.050,,,,,
384,12/31/12 07:30:00 AM,11.929,,,,,
385,12/31/12 08:00:00 AM,11.832,,,,,
386,12/31/12 08:30:00 AM,11.759,,,,,
387,12/31/12 09:00:00 AM,11.710,,,,,
388,12/31/12 09:30:00 AM,11.662,,,,,
389,12/31/12 10:00:00 AM,11.613,,,,,
390,12/31/12 10:30:00 AM,11.613,,,,,
391,12/31/12 11:00:00 AM,11.613,,,,,
392,12/31/12 11:30:00 AM,11.637,,,,,
393,12/31/12 12:00:00 PM,11.759,,,,,
394,12/31/12 12:30:00 PM,11.904,,,,,
395,12/31/12 01:00:00 PM,12.025,,,,,
396,12/31/12 01:30:00 PM,12.195,,,,,
397,12/31/12 02:00:00 PM,12.364,,,,,
398,12/31/12 02:30:00 PM,12.558,,,,,
399,12/31/12 03:00:00 PM,12.751,,,,,
400,12/31/12 03:30:00 PM,12.920,,,,,
401,12/31/12 04:00:00 PM,13.233,,,,,
402,12/31/12 04:30:00 PM,13.473,,,,,
403,12/31/12 05:00:00 PM,13.666,,,,,
404,12/31/12 05:30:00 PM,13.786,,,,,
405,12/31/12 06:00:00 PM,13.858,,,,,
406,12/31/12 06:30:00 PM,13.858,,,,,
407,12/31/12 07:00:00 PM,13.858,,,,,
408,12/31/12 07:30:00 PM,13.738,,,,,
409,12/31/12 08:00:00 PM,13.618,,,,,
410,12/31/12 08:30:00 PM,13.473,,,,,
411,12/31/12 09:00:00 PM,13.329,,,,,
412,12/31/12 09:30:00 PM,13.233,,,,,
413,12/31/12 10:00:00 PM,13.088,,,,,
414,12/31/12 10:30:00 PM,12.968,,,,,
415,12/31/12 11:00:00 PM,12.823,,,,,
416,12/31/12 11:30:00 PM,12.727,,,,,
417,01/01/13 12:00:00 AM,12.606,,,,,
418,01/01/13 12:30:00 AM,12.485,,,,,
419,01/01/13 01:00:00 AM,12.364,,,,,
420,01/01/13 01:30:00 AM,12.219,,,,,
421,01/01/13 02:00:00 AM,12.098,,,,,
422,01/01/13 02:30:00 AM,12.001,,,,,
423,01/01/13 03:00:00 AM,11.977,,,,,
424,01/01/13 03:30:00 AM,11.929,,,,,
425,01/01/13 04:00:00 AM,11.880,,,,,
426,01/01/13 04:30:00 AM,11.807,,,,,
427,01/01/13 05:00:00 AM,11.759,,,,,
428,01/01/13 05:30:00 AM,11.710,,,,,
429,01/01/13 06:00:00 AM,11.686,,,,,
430,01/01/13 06:30:00 AM,11.637,,,,,
431,01/01/13 07:00:00 AM,11.565,,,,,
432,01/01/13 07:30:00 AM,11.492,,,,,
433,01/01/13 08:00:00 AM,11.443,,,,,
434,01/01/13 08:30:00 AM,11.394,,,,,
435,01/01/13 09:00:00 AM,11.346,,,,,
436,01/01/13 09:30:00 AM,11.370,,,,,
437,01/01/13 10:00:00 AM,11.394,,,,,
438,01/01/13 10:30:00 AM,11.419,,,,,
439,01/01/13 11:00:00 AM,11.443,,,,,
440,01/01/13 11:30:00 AM,11.516,,,,,
441,01/01/13 12:00:00 PM,11.589,,,,,
442,01/01/13 12:30:00 PM,11.710,,,,,
443,01/01/13 01:00:00 PM,11.856,,,,,
444,01/01/13 01:30:00 PM,12.025,,,,,
445,01/01/13 02:00:00 PM,12.195,,,,,
446,01/01/13 02:30:00 PM,12.364,,,,,
447,01/01/13 03:00:00 PM,12.534,,,,,
448,01/01/13 03:30:00 PM,12.654,,,,,
449,01/01/13 04:00:00 PM,12.678,,,,,
450,01/01/13 04:30:00 PM,12.775,,,,,
451,01/01/13 05:00:00 PM,12.823,,,,,
452,01/01/13 05:30:00 PM,12.847,,,,,
453,01/01/13 06:00:00 PM,12.847,,,,,
454,01/01/13 06:30:00 PM,12.847,,,,,
455,01/01/13 07:00:00 PM,12.823,,,,,
456,01/01/13 07:30:00 PM,12.799,,,,,
457,01/01/13 08:00:00 PM,12.799,,,,,
458,01/01/13 08:30:00 PM,12.751,,,,,
459,01/01/13 09:00:00 PM,12.703,,,,,
460,01/01/13 09:30:00 PM,12.678,,,,,
461,01/01/13 10:00:00 PM,12.799,,,,,
462,01/01/13 10:30:00 PM,12.896,,,,,
463,01/01/13 11:00:00 PM,13.016,,,,,
464,01/01/13 11:30:00 PM,13.112,,,,,
465,01/02/13 12:00:00 AM,13.161,,,,,
466,01/02/13 12:30:00 AM,13.185,,,,,
467,01/02/13 01:00:00 AM,13.161,,,,,
468,01/02/13 01:30:00 AM,13.112,,,,,
469,01/02/13 02:00:00 AM,13.040,,,,,
470,01/02/13 02:30:00 AM,12.968,,,,,
471,01/02/13 03:00:00 AM,12.944,,,,,
472,01/02/13 03:30:00 AM,12.847,,,,,
473,01/02/13 04:00:00 AM,12.775,,,,,
474,01/02/13 04:30:00 AM,12.703,,,,,
475,01/02/13 05:00:00 AM,12.630,,,,,
476,01/02/13 05:30:00 AM,12.558,,,,,
477,01/02/13 06:00:00 AM,12.485,,,,,
478,01/02/13 06:30:00 AM,12.461,,,,,
479,01/02/13 07:00:00 AM,12.340,,,,,
480,01/02/13 07:30:00 AM,12.268,,,,,
481,01/02/13 08:00:00 AM,12.195,,,,,
482,01/02/13 08:30:00 AM,12.243,,,,,
483,01/02/13 09:00:00 AM,12.364,,,,,
484,01/02/13 09:30:00 AM,12.461,,,,,
485,01/02/13 10:00:00 AM,12.558,,,,,
486,01/02/13 10:30:00 AM,12.630,,,,,
487,01/02/13 11:00:00 AM,12.751,,,,,
488,01/02/13 11:30:00 AM,12.871,,,,,
489,01/02/13 12:00:00 PM,13.040,,,,,
490,01/02/13 12:30:00 PM,13.257,,,,,
491,01/02/13 01:00:00 PM,13.449,,,,,
492,01/02/13 01:30:00 PM,13.666,,,,,
493,01/02/13 02:00:00 PM,13.858,,,,,
494,01/02/13 02:30:00 PM,14.050,,,,,
495,01/02/13 03:00:00 PM,14.242,,,,,
496,01/02/13 03:30:00 PM,14.385,,,,,
497,01/02/13 04:00:00 PM,14.481,,,,,
498,01/02/13 04:30:00 PM,14.601,,,,,
499,01/02/13 05:00:00 PM,14.840,,,,,
500,01/02/13 05:30:00 PM,15.103,,,,,
501,01/02/13 06:00:00 PM,15.342,,,,,
502,01/02/13 06:30:00 PM,15.605,,,,,
503,01/02/13 07:00:00 PM,15.796,,,,,
504,01/02/13 07:30:00 PM,15.939,,,,,
505,01/02/13 08:00:00 PM,16.010,,,,,
506,01/02/13 08:30:00 PM,16.010,,,,,
507,01/02/13 09:00:00 PM,15.939,,,,,
508,01/02/13 09:30:00 PM,15.819,,,,,
509,01/02/13 10:00:00 PM,15.724,,,,,
510,01/02/13 10:30:00 PM,15.605,,,,,
511,01/02/13 11:00:00 PM,15.438,,,,,
512,01/02/13 11:30:00 PM,15.270,,,,,
513,01/03/13 12:00:00 AM,15.103,,,,,
514,01/03/13 12:30:00 AM,14.912,,,,,
515,01/03/13 01:00:00 AM,14.721,,,,,
516,01/03/13 01:30:00 AM,14.577,,,,,
517,01/03/13 02:00:00 AM,14.433,,,,,
518,01/03/13 02:30:00 AM,14.290,,,,,
519,01/03/13 03:00:00 AM,14.170,,,,,
520,01/03/13 03:30:00 AM,14.026,,,,,
521,01/03/13 04:00:00 AM,13.906,,,,,
522,01/03/13 04:30:00 AM,13.762,,,,,
523,01/03/13 05:00:00 AM,13.642,,,,,
524,01/03/13 05:30:00 AM,13.570,,,,,
525,01/03/13 06:00:00 AM,13.473,,,,,
526,01/03/13 06:30:00 AM,13.377,,,,,
527,01/03/13 07:00:00 AM,13.281,,,,,
528,01/03/13 07:30:00 AM,13.185,,,,,
529,01/03/13 08:00:00 AM,13.088,,,,,
530,01/03/13 08:30:00 AM,13.064,,,,,
531,01/03/13 09:00:00 AM,13.064,,,,,
532,01/03/13 09:30:00 AM,13.040,,,,,
533,01/03/13 10:00:00 AM,13.064,,,,,
534,01/03/13 10:30:00 AM,13.112,,,,,
535,01/03/13 11:00:00 AM,13.185,,,,,
536,01/03/13 11:30:00 AM,13.305,,,,,
537,01/03/13 12:00:00 PM,13.522,,,,,
538,01/03/13 12:30:00 PM,13.690,,,,,
539,01/03/13 01:00:00 PM,13.906,,,,,
540,01/03/13 01:30:00 PM,14.146,,,,,
541,01/03/13 02:00:00 PM,14.361,,,,,
542,01/03/13 02:30:00 PM,14.577,,,,,
543,01/03/13 03:00:00 PM,14.768,,,,,
544,01/03/13 03:30:00 PM,14.936,,,,,
545,01/03/13 04:00:00 PM,15.079,,,,,
546,01/03/13 04:30:00 PM,15.151,,,,,
547,01/03/13 05:00:00 PM,15.199,,,,,
548,01/03/13 05:30:00 PM,15.199,,,,,
549,01/03/13 06:00:00 PM,15.175,,,,,
550,01/03/13 06:30:00 PM,15.151,,,,,
551,01/03/13 07:00:00 PM,15.223,,,,,
552,01/03/13 07:30:00 PM,15.318,,,,,
553,01/03/13 08:00:00 PM,15.366,,,,,
554,01/03/13 08:30:00 PM,15.366,,,,,
555,01/03/13 09:00:00 PM,22.633,,,,,
556,01/03/13 09:30:00 PM,20.603,,,,,
557,01/03/13 10:00:00 PM,21.318,,,,,
558,01/03/13 10:30:00 PM,19.627,,,,,
559,01/03/13 11:00:00 PM,18.818,,,,,
560,01/03/13 11:30:00 PM,18.343,,,,,
561,01/04/13 12:00:00 AM,18.033,,,,,
562,01/04/13 12:30:00 AM,17.819,,,,,
563,01/04/13 01:00:00 AM,17.653,,,,,
564,01/04/13 01:30:00 AM,17.510,,,,,
565,01/04/13 02:00:00 AM,17.391,,,,,
566,01/04/13 02:30:00 AM,17.296,,,,,
567,01/04/13 03:00:00 AM,17.201,,,,,
568,01/04/13 03:30:00 AM,17.082,,,,,
569,01/04/13 04:00:00 AM,16.987,,,,,
570,01/04/13 04:30:00 AM,16.892,,,,,
571,01/04/13 05:00:00 AM,16.796,,,,,
572,01/04/13 05:30:00 AM,16.701,,,,,
573,01/04/13 06:00:00 AM,16.606,,,,,
574,01/04/13 06:30:00 AM,16.511,,,,,
575,01/04/13 07:00:00 AM,16.415,,,,,
576,01/04/13 07:30:00 AM,16.320,,,,,
577,01/04/13 08:00:00 AM,16.225,,,,,
578,01/04/13 08:30:00 AM,16.153,,,,,
579,01/04/13 09:00:00 AM,16.272,,,,,
580,01/04/13 09:30:00 AM,16.058,,,,,
581,01/04/13 10:00:00 AM,16.582,,,,,
582,01/04/13 10:30:00 AM,18.152,,,,,
583,01/04/13 11:00:00 AM,20.484,,,,,
584,01/04/13 11:30:00 AM,23.448,,,,,
585,01/04/13 12:00:00 PM,26.500,,,,,
586,01/04/13 12:30:00 PM,29.165,,,,,
587,01/04/13 01:00:00 PM,31.230,,,,,
588,01/04/13 01:30:00 PM,33.027,,,,,
589,01/04/13 02:00:00 PM,33.391,,,,,
590,01/04/13 02:30:00 PM,32.898,,,,,
591,01/04/13 03:00:00 PM,32.227,,,,,
592,01/04/13 03:30:00 PM,31.484,,,,,
593,01/04/13 04:00:00 PM,30.621,,,,,
594,01/04/13 04:30:00 PM,29.690,,,,,
595,01/04/13 05:00:00 PM,26.158,,,,,
596,01/04/13 05:30:00 PM,24.243,,,,,
597,01/04/13 06:00:00 PM,22.417,,,,,
598,01/04/13 06:30:00 PM,20.746,,,,,
599,01/04/13 07:00:00 PM,19.175,,,,,
600,01/04/13 07:30:00 PM,17.724,,,,,
601,01/04/13 08:00:00 PM,16.344,,,,,
602,01/04/13 08:30:00 PM,15.055,,,,,
603,01/04/13 09:00:00 PM,13.930,,,,,
604,01/04/13 09:30:00 PM,14.385,,,,,
605,01/04/13 10:00:00 PM,14.816,,,,,
606,01/04/13 10:30:00 PM,14.768,,,,,
607,01/04/13 11:00:00 PM,14.290,,,,,
608,01/04/13 11:30:00 PM,13.401,,,,,
609,01/05/13 12:00:00 AM,12.219,,,,,
610,01/05/13 12:30:00 AM,11.102,,,,,
611,01/05/13 01:00:00 AM,10.051,,,,,
612,01/05/13 01:30:00 AM,9.114,,,,,
613,01/05/13 02:00:00 AM,8.319,,,,,
614,01/05/13 02:30:00 AM,7.594,,,,,
615,01/05/13 03:00:00 AM,6.940,,,,,
616,01/05/13 03:30:00 AM,6.331,,,,,
617,01/05/13 04:00:00 AM,5.745,,,,,
618,01/05/13 04:30:00 AM,5.231,,,,,
619,01/05/13 05:00:00 AM,4.714,,,,,
620,01/05/13 05:30:00 AM,4.272,,,,,
621,01/05/13 06:00:00 AM,3.827,,,,,
622,01/05/13 06:30:00 AM,3.485,,,,,
623,01/05/13 07:00:00 AM,3.643,,,,,
624,01/05/13 07:30:00 AM,5.462,,,,,
625,01/05/13 08:00:00 AM,8.045,,,,,
626,01/05/13 08:30:00 AM,10.516,,,,,
627,01/05/13 09:00:00 AM,11.783,,,,,
628,01/05/13 09:30:00 AM,24.774,,,,,
629,01/05/13 10:00:00 AM,19.722,,,,,
630,01/05/13 10:30:00 AM,21.557,,,,,